{"data":{"norad_id":55653,"intl_designator":"2023-021AB","name":"STARLINK-5067","alt_names":[],"object_type":"PAYLOAD","status":"ACTIVE","operator":null,"country":"US","launch_date":"2023-02-17","launch_site_code":"AFWTR","launch_vehicle":null,"mission":null,"orbit_class":"UNKNOWN","rcs_meters":null,"size_class":null,"mass_kg":null,"dimensions":null,"purposes":["comms"],"wikipedia_slug":null,"has_3d_model":false,"image_url":null,"decayed_at":null,"tle_current":{"epoch":"2026-09-20T21:12:02.551968Z","epoch_age_seconds":69974,"freshness":"FRESH","line1":"1 55653U 23021AB  26263.88336287  .00000333  00000+0  35665-4 0  9993","line2":"2 55653  69.9995  52.1347 0002968 267.9324  92.1495 14.98327888198032","mean_motion":14.98327888,"eccentricity":0.0002968,"inclination_deg":69.9995,"raan_deg":52.1347,"arg_perigee_deg":267.9324,"mean_anomaly_deg":92.1495,"bstar":3.5665e-5,"rev_number":19803,"period_min":96.107134595362,"perigee_km":569.99960294938,"apogee_km":574.12524132636,"semimajor_km":6950.1994221379,"source":"CELESTRAK","updated_at":"2026-09-21T09:00:33.285971Z"}}}